Location: Triton
(47.6048°N, 122.9899°W)
Time: 15:23:58
(UTC+00:00)

ARIANE 6 FM1 Upper Stage - Pass Details

Date: 17 February 2026
Orbit: 523 x 607 km, 62.0° (Epoch: 8 March)

Event Time Altitude Azimuth Distance (km) Brightness Sun altitude
Rises 04:54:27 0° 298° (WNW) 2,658 7.2 -33.5°
Reaches altitude 10° 04:58:32 10° 256° (WSW) 1,770 5.8 -34.1°
Enters shadow 04:58:44 10° 253° (WSW) 1,758 5.7 -34.1°
